Ypsilanti, MI

12:03 AM EDT on June 25, 2017 (GMT -0400)
Willow Run

Weather History for KYIP - December, 2011

Change the Weather History Date:

Sunday, December 25, 2011

  Actual Average Record
Temperature  
Mean Temperature 40 °F -  
Max Temperature 46 °F 31 °F 62 °F (1982)
Min Temperature 33 °F 19 °F -10 °F (1983)
Degree Days  
Heating Degree Days 26    
Moisture  
Dew Point 27 °F    
Average Humidity 64    
Maximum Humidity 75    
Minimum Humidity 46    
Precipitation  
Precipitation 0.01 in - - ()
Sea Level Pressure  
Sea Level Pressure 30.07 in    
Wind  
Wind Speed 15 mph (West)    
Max Wind Speed 26 mph    
Max Gust Speed 34 mph    
Visibility 10 miles    
Events      
Averages and records for this station are not official NWS values.
T = Trace of Precipitation, MM = Missing Value Source: NWS Daily Summary

Daily Weather History Graph

Daily Weather History Graph

Search for Another Location

Airport or City:

Trip Planner

Search our weather history database for the weather conditions in past years. The results will help you decide how hot, cold, wet, or windy it might be!

Date:

Astronomy

Dec. 25, 2011 Rise Set
Actual Time 8:01 AM EST 5:07 PM EST
Civil Twilight 7:29 AM EST 5:38 PM EST
Nautical Twilight 6:53 AM EST 6:14 PM EST
Astronomical Twilight 6:19 AM EST 6:48 PM EST
Moon 8:37 AM EST 6:27 PM EST
Length of Visible Light 10h 09m
Length of Day
9h 05m
New Moon, 1% of the Moon is Illuminated
Dec 25
New Moon
Jan 1
First Quarter
Jan 9
Full
Jan 16
Last Quarter
Jan 23
New

Hourly Weather History & Observations

Time (EST) Temp. Windchill Dew Point Humidity Pressure Visibility Wind Dir Wind Speed Gust Speed Precip Events Conditions
12:53 AM 33.1 °F 23.4 °F 25.0 °F 72% 30.15 in 10.0 mi SW 13.8 mph - N/A   Clear
1:53 AM 34.0 °F 25.0 °F 26.1 °F 73% 30.12 in 10.0 mi SW 12.7 mph - N/A   Clear
2:53 AM 34.0 °F 25.5 °F 26.1 °F 73% 30.11 in 10.0 mi SW 11.5 mph - N/A   Clear
3:53 AM 34.0 °F 25.0 °F 26.1 °F 73% 30.08 in 10.0 mi SSW 12.7 mph - N/A   Scattered Clouds
4:53 AM 33.1 °F 23.9 °F 26.1 °F 75% 30.06 in 10.0 mi SSW 12.7 mph - N/A   Clear
5:53 AM 33.1 °F 23.0 °F 26.1 °F 75% 30.05 in 10.0 mi SSW 15.0 mph - N/A   Clear
6:53 AM 33.1 °F 23.4 °F 26.1 °F 75% 30.05 in 10.0 mi SW 13.8 mph - N/A   Clear
7:53 AM 33.1 °F 22.2 °F 26.1 °F 75% 30.00 in 10.0 mi SSW 17.3 mph - 0.01 in   Clear
8:53 AM 35.1 °F 24.5 °F 27.0 °F 72% 29.98 in 10.0 mi SSW 18.4 mph 25.3 mph N/A   Clear
9:53 AM 37.0 °F 27.4 °F 28.0 °F 70% 29.98 in 10.0 mi SW 17.3 mph 25.3 mph N/A   Clear
10:53 AM 39.9 °F 31.4 °F 28.0 °F 63% 29.97 in 10.0 mi SW 16.1 mph - N/A   Clear
11:53 AM 44.6 °F 36.9 °F 28.4 °F 53% 29.93 in 10.0 mi WSW 18.4 mph - N/A   Clear
12:53 PM 46.9 °F - 27.0 °F 46% 29.93 in 10.0 mi West 18.4 mph 24.2 mph N/A   Mostly Cloudy
1:53 PM 45.0 °F 37.1 °F 28.0 °F 52% 29.94 in 10.0 mi West 19.6 mph 27.6 mph N/A   Scattered Clouds
2:53 PM 44.1 °F 35.7 °F 28.0 °F 53% 29.95 in 10.0 mi West 20.7 mph 29.9 mph N/A   Overcast
3:53 PM 42.8 °F 32.9 °F 26.6 °F 53% 29.98 in 10.0 mi WNW 26.5 mph 34.5 mph N/A   Overcast
4:53 PM 42.1 °F 32.6 °F 26.1 °F 53% 30.04 in 10.0 mi WNW 23.0 mph 32.2 mph N/A   Overcast
5:53 PM 41.0 °F 31.4 °F 26.1 °F 55% 30.08 in 10.0 mi WNW 21.9 mph 27.6 mph N/A   Mostly Cloudy
6:53 PM 39.9 °F 32.1 °F 27.0 °F 60% 30.12 in 10.0 mi WNW 13.8 mph 23.0 mph N/A   Overcast
7:53 PM 39.9 °F 32.1 °F 27.0 °F 60% 30.15 in 10.0 mi NW 13.8 mph 24.2 mph N/A   Overcast
8:53 PM 39.9 °F 33.9 °F 28.0 °F 63% 30.17 in 10.0 mi WNW 9.2 mph - N/A   Overcast
9:53 PM 39.9 °F 33.9 °F 28.0 °F 63% 30.19 in 10.0 mi WNW 9.2 mph - N/A   Overcast
10:53 PM 39.0 °F 31.8 °F 27.0 °F 62% 30.20 in 10.0 mi NW 11.5 mph - N/A   Overcast
11:08 PM 37.4 °F 29.8 °F 26.6 °F 65% 30.19 in 10.0 mi NW 11.5 mph - N/A   Mostly Cloudy
11:19 PM 37.4 °F 30.8 °F 26.6 °F 65% 30.20 in 10.0 mi WNW 9.2 mph - N/A   Scattered Clouds
11:53 PM 33.8 °F 27.7 °F 26.6 °F 75% 30.21 in 10.0 mi WNW 6.9 mph - N/A   Mostly Cloudy